This demonstration page uses our WeatherBlox Daily Observations layout. Learn more.

Left ArrowRight Arrow

Hourly Observations for October 27, 2018

Temp ( °F °C ) Dew Point ( °F °C ) Humidity (%) Winds ( mph kmh ) Pressure ( in mb ) Visibility ( mi km ) Precip ( " mm )
12:53 am 00:53 Clear 49 9.4 37 2.8 64 64 W 6 9 29.90 1012 10 16 0.00 0.00
1:53 am 01:53 Clear 46 7.8 37 2.8 71 71 W 8 13 29.91 1013 10 16 0.00 0.00
2:53 am 02:53 Clear 45 7.2 37 2.8 74 74 W 5 7 29.91 1013 10 16 0.00 0.00
3:53 am 03:53 Clear 45 7.2 37 2.8 74 74 WNW 9 15 29.92 1013 10 16 0.00 0.00
4:53 am 04:53 Clear 44 6.7 37 2.8 76 76 WNW 9 15 29.91 1013 10 16 0.00 0.00
5:53 am 05:53 Clear 43 6.1 37 2.8 80 80 W 8 13 29.92 1013 10 16 0.00 0.00
6:53 am 06:53 Clear 43 6.1 37 2.8 80 80 W 8 13 29.93 1014 10 16 0.00 0.00
7:53 am 07:53 Clear 44 6.7 36 2.2 73 73 W 7 11 29.94 1014 10 16 0.00 0.00
8:53 am 08:53 Sunny 46 7.8 37 2.8 71 71 W 7 11 29.96 1015 10 16 0.00 0.00
9:53 am 09:53 Sunny 55 12.8 39 3.9 55 55 W 8 13 29.94 1014 10 16 0.00 0.00
10:53 am 10:53 Sunny 62 16.7 40 4.4 44 44 WSW 6 9 29.93 1014 10 16 0.00 0.00
11:53 am 11:53 Sunny 65 18.3 42 5.6 43 43 SW 7 11 29.91 1013 10 16 0.00 0.00
12:53 pm 12:53 Sunny 70 21.1 39 3.9 32 32 SW 12 19 29.89 1012 10 16 0.00 0.00
1:53 pm 13:53 Sunny 72 22.2 39 3.9 30 30 SSW 15 24 29.85 1011 10 16 0.00 0.00
2:53 pm 14:53 Sunny 73 22.8 40 4.4 30 30 SW 12 19 29.82 1010 10 16 0.00 0.00
3:53 pm 15:53 Sunny 74 23.3 41 5 31 31 SW 9 15 29.80 1009 10 16 0.00 0.00
4:53 pm 16:53 Sunny 74 23.3 42 5.6 32 32 SSW 10 17 29.79 1009 10 16 0.00 0.00
5:53 pm 17:53 Sunny 73 22.8 43 6.1 34 34 SSW 8 13 29.80 1009 10 16 0.00 0.00
6:53 pm 18:53 Clear 70 21.1 44 6.7 39 39 SSW 7 11 29.80 1009 10 16 0.00 0.00
7:53 pm 19:53 Clear 66 18.9 43 6.1 43 43 SSW 8 13 29.82 1010 10 16 0.00 0.00
8:53 pm 20:53 Partly Cloudy 63 17.2 46 7.8 54 54 N 21 33 29.91 1013 10 16 0.00 0.03
9:53 pm 21:53 Mostly Clear 60 15.6 46 7.8 60 60 N 13 20 29.93 1014 10 16 0.00 0.00
10:53 pm 22:53 Mostly Clear 57 13.9 45 7.2 64 64 N 18 30 29.97 1015 10 16 0.00 0.00
11:53 pm 23:53 Mostly Clear 55 12.8 45 7.2 69 69 NNW 15 24 29.99 1016 10 16 0.00 0.00

Powered by AerisWeather